Tracking 19219 objects as of 18-Jul-2018
HD Live streaming from Space Station
objects crossing your sky now

CZ-4B DEB

Track CZ-4B DEB now!
10-day predictions


NORAD ID: 29216
Int'l Code: 2002-024G
Perigee: 846.5 km
Apogee: 1,186.4 km
Inclination: 98.8 °
Period: 105.3 minutes
Semi major axis: 7387 km
RCS: 0.0014 m2 (small)
Launch date: May 15, 2002
Source: People's Republic of China (PRC)
Launch site: Taiyaun Space Center, China (TSC)

Note: This is SATELLITE DEBRIS
aabbcc
Your satellite tracking list
Your tracking list is empty




NASA's NSSDC Master Catalog

Two Line Element Set (TLE):
1 29216U 02024G   18198.42688726 +.00000061 +00000-0 +97366-4 0  9990
2 29216 098.8018 178.9379 0230050 154.1816 358.3612 13.67296127304072
Source of the keplerian elements: AFSPC